Weather reports worldwide

Advertisment
Rimini, Italy (16149): temperature & dewpoint: 09.10.2019 19:00:00 - 15.10.2019 19:00:00 (CEST)Rimini, Italy (16149): wind speed: 09.10.2019 19:00:00 - 15.10.2019 19:00:00 (CEST)Rimini, Italy (16149): wind direction: 09.10.2019 19:00:00 - 15.10.2019 19:00:00 (CEST)Rimini, Italy (16149): reduced air pressure: 09.10.2019 19:00:00 - 15.10.2019 19:00:00 (CEST)Rimini, Italy (16149): visibility: 09.10.2019 19:00:00 - 15.10.2019 19:00:00 (CEST)Rimini, Italy (16149): precipitation: 09.10.2019 19:00:00 - 15.10.2019 19:00:00 (CEST)
Date & Time tt [°C] td [°C] ff [km/h] ff [kn] dd ppp [hPa] vv [km] rr [mm]
15.10.2019 19:00:00 22,0 14,0 16 9 SSE - 10 -
15.10.2019 18:00:00 23,0 14,0 13 7 SSE - 10 -
15.10.2019 17:00:00 24,8 13,9 16 9 SSE 1012,3 10 0,0
15.10.2019 16:00:00 25,0 17,0 13 7 E - 10 -
15.10.2019 15:00:00 23,0 17,0 15 8 E - 10 -
15.10.2019 14:00:00 23,3 15,7 11 6 SSE 1014,1 10 -
15.10.2019 13:00:00 25,0 14,0 16 9 S - 10 -
15.10.2019 12:00:00 24,0 15,0 16 9 S - 10 -
15.10.2019 11:00:00 23,4 14,4 9 5 SSE 1015,8 10 0,0
15.10.2019 10:00:00 21,0 16,0 15 8 SE - 10 -
15.10.2019 09:00:00 15,0 15,0 2 1 - - 8 -
15.10.2019 08:00:00 13,5 12,8 5 3 SW 1016,1 6 -
15.10.2019 07:00:00 14,0 13,0 4 2 - - 4,7 -
15.10.2019 06:00:00 14,0 13,0 2 1 - - 7 -
15.10.2019 05:00:00 13,8 13,0 4 2 SSW 1016,8 8 0,0
15.10.2019 04:00:00 13,0 12,0 2 1 - - 5 -
15.10.2019 03:00:00 13,0 12,0 4 2 - - 4,4 -
15.10.2019 02:00:00 13,3 12,6 4 2 S 1018,3 2,6 -
15.10.2019 01:00:00 13,0 13,0 2 1 - - 4,6 -
15.10.2019 00:00:00 14,0 14,0 4 2 SW - 4,9 -
14.10.2019 23:00:00 15,1 14,2 4 2 - 1019,1 10 0,0
14.10.2019 22:00:00 17,0 15,0 4 2 ESE - 10 -
14.10.2019 21:00:00 18,0 16,0 8 4 ESE - 10 -
14.10.2019 20:00:00 17,8 15,8 8 4 E 1019,9 10 -
14.10.2019 19:00:00 19,0 17,0 13 7 E - 10 -
14.10.2019 18:00:00 19,0 16,0 15 8 E - 6 -
14.10.2019 17:00:00 19,5 16,3 16 9 E 1020,1 6 0,0
14.10.2019 16:00:00 20,0 16,0 15 8 E - 5 -
14.10.2019 15:00:00 20,0 16,0 9 5 ENE - 4,0 -
14.10.2019 14:00:00 19,9 15,9 11 6 NE 1021,7 3,5 -
14.10.2019 13:00:00 20,0 15,0 9 5 NE - 3,5 -
14.10.2019 12:00:00 19,0 15,0 4 2 - - 3,5 -
14.10.2019 11:00:00 17,9 15,1 5 3 W 1023,3 3,0 0,0
14.10.2019 10:00:00 15,0 14,0 4 2 - - 4,0 -
14.10.2019 09:00:00 13,0 13,0 4 2 - - 5 -
14.10.2019 08:00:00 11,9 11,2 4 2 S 1022,8 5 -
14.10.2019 07:00:00 12,0 11,0 8 4 S - 5 -
14.10.2019 06:00:00 12,0 11,0 8 4 SSW - 5 -
14.10.2019 05:00:00 12,0 11,2 5 3 WSW 1022,8 6 0,0
14.10.2019 04:00:00 13,0 12,0 4 2 SW - 5 -
14.10.2019 03:00:00 13,0 12,0 4 2 - - 4,5 -
14.10.2019 02:00:00 12,7 12,0 4 2 S 1023,3 1,2 -
14.10.2019 01:00:00 13,0 12,0 5 3 S - 1,0 -
14.10.2019 00:00:00 14,0 13,0 2 1 - - 3,0 -
13.10.2019 23:00:00 14,4 13,6 4 2 S 1023,6 8 0,0
13.10.2019 22:00:00 15,0 15,0 4 2 SE - 7 -
13.10.2019 21:00:00 16,0 15,0 2 1 - - 7 -
13.10.2019 20:00:00 16,5 15,2 4 2 SE 1023,6 5 -
13.10.2019 19:00:00 18,0 16,0 4 2 ESE - 3,5 -
13.10.2019 18:00:00 19,0 16,0 5 3 ENE - 4,0 -
13.10.2019 17:00:00 19,1 16,1 5 3 NE 1023,3 4,0 0,0
13.10.2019 16:00:00 19,0 16,0 9 5 NE - 3,0 -
13.10.2019 15:00:00 19,0 16,0 9 5 NNE - 3,0 -
13.10.2019 14:00:00 19,3 16,1 11 6 NNE 1023,8 3,0 -
13.10.2019 13:00:00 19,0 15,0 11 6 NNE - 4,0 -
13.10.2019 12:00:00 19,0 16,0 8 4 NNE - 4,0 -
13.10.2019 11:00:00 18,8 15,2 4 2 - 1024,5 4,0 0,0
13.10.2019 10:00:00 17,0 15,0 2 1 - - 4,0 -
13.10.2019 09:00:00 14,0 13,0 2 1 - - 4,0 -
13.10.2019 08:00:00 12,7 11,9 4 2 S 1023,5 4,0 -
13.10.2019 07:00:00 13,0 12,0 4 2 WSW - 3,4 -
13.10.2019 06:00:00 13,0 13,0 4 2 S - 2,6 -
13.10.2019 05:00:00 13,6 12,7 5 3 S 1023,3 2,5 0,0
13.10.2019 04:00:00 15,0 13,0 4 2 - - 3,6 -
13.10.2019 03:00:00 16,0 14,0 8 4 S - 3,5 -
13.10.2019 02:00:00 16,7 14,7 9 5 SW 1023,9 4,7 -
13.10.2019 01:00:00 17,0 15,0 9 5 SSW - 3,7 -
13.10.2019 00:00:00 16,0 15,0 4 2 SSW - 4,5 -
12.10.2019 23:00:00 15,0 13,7 4 2 SSW 1024,0 10 0,0
12.10.2019 22:00:00 17,0 15,0 4 2 E - 8 -
12.10.2019 21:00:00 18,0 15,0 4 2 E - 8 -
12.10.2019 20:00:00 18,7 15,6 5 3 ESE 1023,3 8 -
12.10.2019 19:00:00 19,0 16,0 5 3 ENE - 6 -
12.10.2019 18:00:00 19,0 16,0 5 3 NE - 6 -
12.10.2019 17:00:00 19,0 15,7 5 3 NE 1023,3 5 0,0
12.10.2019 16:00:00 19,0 16,0 8 4 NE - 5 -
12.10.2019 15:00:00 19,0 16,0 9 5 N - 3,5 -
12.10.2019 14:00:00 18,8 14,8 9 5 N 1023,7 4,0 -
12.10.2019 13:00:00 19,0 14,0 11 6 NNW - 4,0 -
12.10.2019 12:00:00 18,0 14,0 9 5 N - 5 -
12.10.2019 11:00:00 17,3 13,6 8 4 N 1024,4 6 0,0
12.10.2019 10:00:00 15,0 14,0 5 3 WNW - 6 -
12.10.2019 09:00:00 14,0 13,0 4 2 - - 5 -
12.10.2019 08:00:00 11,0 10,3 4 2 WSW 1023,7 4,0 -
12.10.2019 07:00:00 11,0 11,0 2 1 - - 3,6 -
12.10.2019 06:00:00 12,0 12,0 4 2 SW - 3,2 -
12.10.2019 05:00:00 12,1 11,3 4 2 S 1023,3 1,9 0,0
12.10.2019 04:00:00 13,0 12,0 4 2 SSW - 2,2 -
12.10.2019 03:00:00 13,0 13,0 5 3 S - 2,7 -
12.10.2019 02:00:00 13,7 12,8 5 3 SSW 1023,8 2,2 -
12.10.2019 01:00:00 14,0 13,0 5 3 SSW - 3,2 -
12.10.2019 00:00:00 15,0 13,0 4 2 WSW - 2,3 -
11.10.2019 23:00:00 15,8 14,2 2 1 - 1023,6 8 0,0
11.10.2019 22:00:00 18,0 15,0 5 3 SSE - 6 -
11.10.2019 21:00:00 18,0 15,0 4 2 SSE - 6 -
11.10.2019 20:00:00 18,0 15,3 5 3 ESE 1023,0 6 -
11.10.2019 19:00:00 18,0 15,0 5 3 E - 5 -
11.10.2019 18:00:00 19,0 15,0 8 4 ENE - 6 -
11.10.2019 17:00:00 18,7 14,7 9 5 NE 1022,9 6 0,0
11.10.2019 16:00:00 20,0 15,0 11 6 NE - 6 -
11.10.2019 15:00:00 20,0 15,0 11 6 N - 5 -
11.10.2019 14:00:00 19,5 15,1 13 7 NNW 1024,0 4,5 -
11.10.2019 13:00:00 20,0 15,0 11 6 N - 5 -
11.10.2019 12:00:00 20,0 15,0 5 3 - - 5 -
11.10.2019 11:00:00 18,8 14,1 9 5 W 1024,4 6 0,0
11.10.2019 10:00:00 17,0 14,0 9 5 WSW - 6 -
11.10.2019 09:00:00 15,0 13,0 9 5 W - 5 -
11.10.2019 08:00:00 14,4 12,6 9 5 WSW 1023,3 5 -
11.10.2019 07:00:00 13,0 12,0 8 4 W - 6 -
11.10.2019 06:00:00 14,0 13,0 5 3 WSW - 7 -
11.10.2019 05:00:00 13,2 12,1 5 3 SW 1022,2 4,7 0,0
11.10.2019 04:00:00 13,0 12,0 5 3 W - 5 -
11.10.2019 03:00:00 14,0 13,0 5 3 WSW - 7 -
11.10.2019 02:00:00 13,9 12,6 5 3 S 1021,4 6 -
11.10.2019 01:00:00 13,0 12,0 4 2 SW - 6 -
11.10.2019 00:00:00 14,0 13,0 8 4 S - 5 -
10.10.2019 23:00:00 14,4 13,2 4 2 - 1020,0 7 0,0
10.10.2019 22:00:00 15,0 14,0 4 2 S - 8 -
10.10.2019 21:00:00 16,0 15,0 0 0 N - 7 -
10.10.2019 20:00:00 17,6 14,8 4 2 SSE 1018,2 6 -
10.10.2019 19:00:00 18,0 15,0 4 2 SE - 6 -
10.10.2019 18:00:00 19,0 15,0 5 3 ENE - 6 -
10.10.2019 17:00:00 19,1 14,8 8 4 NNE 1016,4 6 0,0
10.10.2019 16:00:00 19,0 15,0 9 5 NNE - 6 -
10.10.2019 15:00:00 19,0 15,0 11 6 NNE - 7 -
10.10.2019 14:00:00 18,8 15,0 15 8 N 1016,0 6 -
10.10.2019 13:00:00 19,0 15,0 9 5 N - 6 -
10.10.2019 12:00:00 18,0 15,0 11 6 N - 6 -
10.10.2019 11:00:00 18,3 14,1 8 4 WNW 1016,3 5 0,0
10.10.2019 10:00:00 18,0 14,0 11 6 W - 4,0 -
10.10.2019 09:00:00 16,0 13,0 13 7 W - 4,0 -
10.10.2019 08:00:00 14,7 12,9 15 8 W 1015,0 4,0 -
10.10.2019 07:00:00 - - - - - - - -
10.10.2019 06:00:00 - - - - - - - -
10.10.2019 05:00:00 18,4 13,0 9 5 SSW 1014,5 - 0,0
10.10.2019 04:00:00 - - - - - - - -
10.10.2019 03:00:00 - - - - - - - -
10.10.2019 02:00:00 18,9 10,3 8 4 S 1015,0 - -
10.10.2019 01:00:00 - - - - - - - -
10.10.2019 00:00:00 - - - - - - - -
09.10.2019 23:00:00 20,0 10,0 11 6 S - 10 -
09.10.2019 22:00:00 21,0 10,0 9 5 S - 10 -
09.10.2019 21:00:00 20,0 12,0 9 5 S - 10 -
09.10.2019 20:00:00 20,8 11,7 9 5 SE 1013,4 10 -
09.10.2019 19:00:00 22,0 12,0 9 5 SE - 10 -

tt = temperature
td = dewpoint
ff = wind speed
dd = wind direction
ppp = reduced air pressure
vv = visibility
rr = precipitation

Next stations